| time (UTC) | temp F | wind direction | speed MPH | gust MPH | rain 1hr in | rain 24hr in | rain mn in | humidity % | barometer mb |
| 20260508175010 | 69 | 215 | 1.0 | 6.0 | 0.00 | 0.00 | 0.00 | 40 | 1015.7 |
| 20260508174526 | 69 | 165 | 2.0 | 8.0 | 0.00 | 0.00 | 0.00 | 42 | 1015.7 |
| 20260508174013 | 68 | 171 | 3.0 | 8.0 | 0.00 | 0.00 | 0.00 | 33 | 1015.9 |
| 20260508173510 | 68 | 205 | 3.0 | 8.0 | 0.00 | 0.00 | 0.00 | 37 | 1015.9 |
| 20260508173028 | 67 | 221 | 1.0 | 8.0 | 0.00 | 0.00 | 0.00 | 37 | 1016.1 |
| 20260508172510 | 69 | 211 | 1.0 | 8.0 | 0.00 | 0.00 | 0.00 | 41 | 1016.2 |
| 20260508172006 | 69 | 138 | 4.0 | 8.0 | 0.00 | 0.00 | 0.00 | 38 | 1016.2 |
| 20260508171528 | 68 | 188 | 2.0 | 9.0 | 0.00 | 0.00 | 0.00 | 44 | 1016.2 |
| 20260508171005 | 67 | 261 | 2.0 | 9.0 | 0.00 | 0.00 | 0.00 | 40 | 1016.4 |
| 20260508170504 | 67 | 208 | 4.0 | 9.0 | 0.00 | 0.00 | 0.00 | 48 | 1016.4 |
| 20260508170018 | 67 | 244 | 3.0 | 11.0 | 0.00 | 0.00 | 0.00 | 49 | 1016.6 |
| 20260508165507 | 66 | 201 | 6.0 | 11.0 | 0.00 | 0.00 | 0.00 | 44 | 1016.7 |
| 20260508165007 | 68 | 225 | 4.0 | 9.0 | 0.00 | 0.00 | 0.00 | 41 | 1016.8 |
| 20260508164523 | 67 | 229 | 3.0 | 9.0 | 0.00 | 0.00 | 0.00 | 45 | 1017.0 |
| 20260508164006 | 67 | 140 | 4.0 | 10.0 | 0.00 | 0.00 | 0.00 | 48 | 1017.2 |
| 20260508163512 | 67 | 156 | 3.0 | 10.0 | 0.00 | 0.00 | 0.00 | 42 | 1017.3 |
| 20260508163027 | 65 | 158 | 5.0 | 10.0 | 0.00 | 0.00 | 0.00 | 43 | 1017.4 |
| 20260508162507 | 65 | 245 | 3.0 | 9.0 | 0.00 | 0.00 | 0.00 | 39 | 1017.4 |
| 20260508162013 | 66 | 179 | 1.0 | 9.0 | 0.00 | 0.00 | 0.00 | 41 | 1017.5 |
| 20260508161535 | 66 | 155 | 0.0 | 6.0 | 0.00 | 0.00 | 0.00 | 46 | 1017.5 |
| 20260508161010 | 66 | 160 | 3.0 | 6.0 | 0.00 | 0.00 | 0.00 | 40 | 1017.6 |
| 20260508160510 | 65 | 161 | 1.0 | 5.0 | 0.00 | 0.00 | 0.00 | 42 | 1017.6 |
| 20260508160019 | 65 | 255 | 3.0 | 5.0 | 0.00 | 0.00 | 0.00 | 43 | 1017.7 |
| 20260508155505 | 66 | 206 | 2.0 | 7.0 | 0.00 | 0.00 | 0.00 | 45 | 1017.8 |
| 20260508155007 | 65 | 123 | 2.0 | 7.0 | 0.00 | 0.00 | 0.00 | 43 | 1017.9 |
| 20260508154518 | 65 | 117 | 3.0 | 9.0 | 0.00 | 0.00 | 0.00 | 44 | 1017.9 |
| 20260508154009 | 64 | 136 | 5.0 | 9.0 | 0.00 | 0.00 | 0.00 | 47 | 1018.0 |
| 20260508153507 | 64 | 53 | 3.0 | 7.0 | 0.00 | 0.00 | 0.00 | 44 | 1018.1 |
| 20260508153026 | 64 | 49 | 2.0 | 7.0 | 0.00 | 0.00 | 0.00 | 43 | 1018.1 |
| 20260508152508 | 64 | 111 | 3.0 | 8.0 | 0.00 | 0.00 | 0.00 | 44 | 1018.3 |
| 20260508152010 | 64 | 134 | 4.0 | 8.0 | 0.00 | 0.00 | 0.00 | 48 | 1018.3 |
| 20260508151525 | 63 | 301 | 1.0 | 4.0 | 0.00 | 0.00 | 0.00 | 46 | 1018.3 |
| 20260508151012 | 63 | 221 | 1.0 | 6.0 | 0.00 | 0.00 | 0.00 | 50 | 1018.4 |
| 20260508150513 | 62 | 223 | 1.0 | 7.0 | 0.00 | 0.00 | 0.00 | 47 | 1018.4 |
| 20260508150037 | 62 | 232 | 3.0 | 7.0 | 0.00 | 0.00 | 0.00 | 48 | 1018.4 |
| 20260508145507 | 62 | 222 | 3.0 | 6.0 | 0.00 | 0.00 | 0.00 | 50 | 1018.4 |
| 20260508145010 | 62 | 227 | 1.0 | 5.0 | 0.00 | 0.00 | 0.00 | 51 | 1018.3 |
| 20260508144540 | 62 | 227 | 2.0 | 5.0 | 0.00 | 0.00 | 0.00 | 53 | 1018.3 |
| 20260508144007 | 62 | 199 | 3.0 | 5.0 | 0.00 | 0.00 | 0.00 | 49 | 1018.3 |
| 20260508143506 | 62 | 197 | 2.0 | 4.0 | 0.00 | 0.00 | 0.00 | 51 | 1018.4 |
| 20260508143028 | 61 | 221 | 0.0 | 5.0 | 0.00 | 0.00 | 0.00 | 54 | 1018.4 |
| 20260508142506 | 61 | 221 | 1.0 | 5.0 | 0.00 | 0.00 | 0.00 | 55 | 1018.4 |
| 20260508142007 | 60 | 221 | 1.0 | 4.0 | 0.00 | 0.00 | 0.00 | 55 | 1018.5 |
| 20260508141528 | 60 | 221 | 2.0 | 4.0 | 0.00 | 0.00 | 0.00 | 59 | 1018.5 |
| 20260508141012 | 59 | 221 | 2.0 | 5.0 | 0.00 | 0.00 | 0.00 | 60 | 1018.5 |
| 20260508140503 | 58 | 221 | 3.0 | 5.0 | 0.00 | 0.00 | 0.00 | 61 | 1018.4 |
| 20260508140012 | 57 | 221 | 1.0 | 4.0 | 0.00 | 0.00 | 0.00 | 66 | 1018.4 |
| 20260508135503 | 57 | 221 | 2.0 | 4.0 | 0.00 | 0.00 | 0.00 | 67 | 1018.4 |
| 20260508135006 | 56 | 284 | 0.0 | 2.0 | 0.00 | 0.00 | 0.00 | 72 | 1018.5 |
| 20260508134515 | 55 | 284 | 0.0 | 3.0 | 0.00 | 0.00 | 0.00 | 81 | 1018.5 |
| 20260508134007 | 53 | 284 | 1.0 | 3.0 | 0.00 | 0.00 | 0.00 | 83 | 1018.6 |
| 20260508133502 | 53 | 284 | 0.0 | 1.0 | 0.00 | 0.00 | 0.00 | 91 | 1018.6 |
| 20260508133003 | 51 | 284 | 0.0 | 3.0 | 0.00 | 0.00 | 0.00 | 92 | 1018.6 |
| 20260508132502 | 51 | 284 | 0.0 | 3.0 | 0.00 | 0.00 | 0.00 | 94 | 1018.7 |
| 20260508132002 | 50 | 284 | 0.0 | 0.0 | 0.00 | 0.00 | 0.00 | 96 | 1018.6 |
| 20260508131507 | 49 | 284 | 0.0 | 3.0 | 0.00 | 0.00 | 0.00 | 96 | 1018.5 |
| 20260508131005 | 48 | 284 | 0.0 | 3.0 | 0.00 | 0.00 | 0.00 | 96 | 1018.5 |
| 20260508130502 | 48 | 284 | 1.0 | 3.0 | 0.00 | 0.00 | 0.00 | 96 | 1018.5 |
| 20260508130010 | 47 | 284 | 0.0 | 2.0 | 0.00 | 0.00 | 0.00 | 95 | 1018.4 |
| 20260508125503 | 47 | 284 | 1.0 | 2.0 | 0.00 | 0.00 | 0.00 | 96 | 1018.4 |
| 20260508125003 | 46 | 284 | 1.0 | 2.0 | 0.00 | 0.00 | 0.00 | 96 | 1018.3 |
| 20260508124512 | 46 | 284 | 1.0 | 2.0 | 0.00 | 0.00 | 0.00 | 96 | 1018.4 |
| 20260508124007 | 45 | 284 | 0.0 | 1.0 | 0.00 | 0.00 | 0.00 | 96 | 1018.4 |
| 20260508123506 | 44 | 209 | 0.0 | 0.0 | 0.00 | 0.00 | 0.00 | 96 | 1018.4 |
| 20260508123021 | 44 | 209 | 0.0 | 1.0 | 0.00 | 0.00 | 0.00 | 96 | 1018.4 |
| 20260508122506 | 43 | 209 | 0.0 | 1.0 | 0.00 | 0.00 | 0.00 | 96 | 1018.3 |
| 20260508122005 | 42 | 209 | 0.0 | 1.0 | 0.00 | 0.00 | 0.00 | 96 | 1018.3 |
| 20260508121504 | 40 | 286 | 0.0 | 1.0 | 0.00 | 0.00 | 0.00 | 96 | 1018.3 |
| 20260508121004 | 39 | 286 | 0.0 | 0.0 | 0.00 | 0.00 | 0.00 | 95 | 1018.2 |
| 20260508120502 | 38 | 286 | 0.0 | 0.0 | 0.00 | 0.00 | 0.00 | 95 | 1018.1 |
| 20260508120009 | 38 | 286 | 0.0 | 1.0 | 0.00 | 0.01 | 0.00 | 94 | 1018.1 |
| 20260508115503 | 38 | 286 | 0.0 | 1.0 | 0.00 | 0.01 | 0.00 | 95 | 1018.1 |
| 20260508115003 | 37 | 286 | 0.0 | 1.0 | 0.00 | 0.01 | 0.00 | 94 | 1018.0 |
| 20260508114524 | 37 | 54 | 0.0 | 1.0 | 0.00 | 0.01 | 0.00 | 93 | 1018.0 |
| 20260508114003 | 37 | 54 | 0.0 | 1.0 | 0.00 | 0.01 | 0.00 | 93 | 1017.9 |
| 20260508113507 | 37 | 331 | 0.0 | 0.0 | 0.00 | 0.01 | 0.00 | 93 | 1017.9 |
| 20260508113014 | 37 | 331 | 0.0 | 0.0 | 0.00 | 0.01 | 0.00 | 93 | 1017.7 |
| 20260508112507 | 36 | 331 | 0.0 | 0.0 | 0.00 | 0.01 | 0.00 | 92 | 1017.7 |
| 20260508112011 | 36 | 332 | 0.0 | 1.0 | 0.00 | 0.01 | 0.00 | 92 | 1017.7 |
| 20260508111518 | 36 | 332 | 0.0 | 1.0 | 0.00 | 0.01 | 0.00 | 92 | 1017.6 |
| 20260508111007 | 36 | 332 | 0.0 | 0.0 | 0.00 | 0.01 | 0.00 | 92 | 1017.4 |
| 20260508110508 | 36 | 332 | 0.0 | 0.0 | 0.00 | 0.01 | 0.00 | 92 | 1017.4 |
| 20260508110021 | 37 | 332 | 0.0 | 0.0 | 0.00 | 0.01 | 0.00 | 92 | 1017.4 |
| 20260508105502 | 37 | 332 | 0.0 | 0.0 | 0.00 | 0.01 | 0.00 | 92 | 1017.3 |
| 20260508105004 | 37 | 332 | 0.0 | 0.0 | 0.00 | 0.01 | 0.00 | 92 | 1017.3 |
| 20260508104507 | 36 | 332 | 0.0 | 0.0 | 0.00 | 0.01 | 0.00 | 92 | 1017.3 |
| 20260508104003 | 37 | 332 | 0.0 | 0.0 | 0.00 | 0.01 | 0.00 | 92 | 1017.3 |
| 20260508103502 | 37 | 332 | 0.0 | 1.0 | 0.00 | 0.01 | 0.00 | 92 | 1017.2 |
| 20260508103016 | 37 | 332 | 0.0 | 1.0 | 0.00 | 0.01 | 0.00 | 92 | 1017.1 |
| 20260508102503 | 37 | 332 | 0.0 | 1.0 | 0.00 | 0.01 | 0.00 | 92 | 1017.1 |
| 20260508102004 | 37 | 332 | 0.0 | 0.0 | 0.00 | 0.01 | 0.00 | 92 | 1017.1 |
| 20260508101517 | 37 | 332 | 0.0 | 0.0 | 0.00 | 0.01 | 0.00 | 92 | 1016.8 |
| 20260508101006 | 37 | 332 | 0.0 | 0.0 | 0.00 | 0.01 | 0.00 | 91 | 1016.8 |
| 20260508100503 | 37 | 332 | 0.0 | 0.0 | 0.00 | 0.01 | 0.00 | 91 | 1016.9 |
| 20260508100029 | 37 | 332 | 0.0 | 0.0 | 0.00 | 0.01 | 0.00 | 91 | 1016.8 |
| 20260508095511 | 38 | 332 | 0.0 | 0.0 | 0.00 | 0.01 | 0.00 | 92 | 1016.8 |
| 20260508095008 | 38 | 332 | 0.0 | 0.0 | 0.00 | 0.01 | 0.00 | 91 | 1016.9 |
| 20260508094525 | 37 | 332 | 0.0 | 1.0 | 0.00 | 0.01 | 0.00 | 91 | 1016.9 |
| 20260508094009 | 37 | 332 | 0.0 | 1.0 | 0.00 | 0.01 | 0.00 | 91 | 1016.8 |
| 20260508093504 | 38 | 332 | 0.0 | 2.0 | 0.00 | 0.01 | 0.00 | 91 | 1016.8 |
| 20260508093014 | 38 | 332 | 0.0 | 2.0 | 0.00 | 0.01 | 0.00 | 91 | 1016.8 |
| 20260508092504 | 38 | 332 | 0.0 | 0.0 | 0.00 | 0.01 | 0.00 | 91 | 1016.7 |
| 20260508092003 | 38 | 332 | 0.0 | 0.0 | 0.00 | 0.01 | 0.00 | 92 | 1016.7 |
| 20260508091512 | 38 | 332 | 0.0 | 0.0 | 0.00 | 0.01 | 0.00 | 91 | 1016.8 |
| 20260508091008 | 38 | 332 | 0.0 | 0.0 | 0.00 | 0.01 | 0.00 | 91 | 1016.8 |
| 20260508090507 | 38 | 332 | 0.0 | 0.0 | 0.00 | 0.01 | 0.00 | 91 | 1016.7 |
| 20260508090019 | 38 | 332 | 0.0 | 0.0 | 0.00 | 0.01 | 0.00 | 91 | 1016.7 |
| 20260508085503 | 39 | 332 | 0.0 | 0.0 | 0.00 | 0.01 | 0.00 | 91 | 1016.7 |
| 20260508085007 | 39 | 332 | 0.0 | 0.0 | 0.00 | 0.01 | 0.00 | 91 | 1016.6 |
| 20260508084523 | 39 | 331 | 0.0 | 1.0 | 0.00 | 0.01 | 0.00 | 91 | 1016.6 |
| 20260508084007 | 39 | 331 | 0.0 | 1.0 | 0.00 | 0.01 | 0.00 | 91 | 1016.7 |
| 20260508083509 | 39 | 331 | 0.0 | 1.0 | 0.00 | 0.01 | 0.00 | 91 | 1016.7 |
| 20260508083025 | 39 | 332 | 0.0 | 2.0 | 0.00 | 0.01 | 0.00 | 91 | 1016.8 |
| 20260508082510 | 40 | 332 | 0.0 | 2.0 | 0.00 | 0.01 | 0.00 | 91 | 1016.8 |
| 20260508082011 | 40 | 332 | 0.0 | 0.0 | 0.00 | 0.01 | 0.00 | 91 | 1016.9 |
| 20260508081526 | 39 | 332 | 0.0 | 0.0 | 0.00 | 0.01 | 0.00 | 91 | 1016.7 |
| 20260508081004 | 39 | 331 | 0.0 | 0.0 | 0.00 | 0.01 | 0.00 | 91 | 1016.8 |
| 20260508080503 | 39 | 331 | 0.0 | 3.0 | 0.00 | 0.01 | 0.00 | 90 | 1016.8 |
| 20260508080016 | 40 | 331 | 0.0 | 3.0 | 0.00 | 0.01 | 0.00 | 90 | 1016.8 |
| 20260508075505 | 40 | 331 | 1.0 | 3.0 | 0.00 | 0.01 | 0.00 | 90 | 1016.8 |
| 20260508075006 | 40 | 331 | 1.0 | 3.0 | 0.00 | 0.01 | 0.00 | 90 | 1016.8 |
| 20260508074521 | 40 | 331 | 0.0 | 0.0 | 0.00 | 0.01 | 0.00 | 90 | 1016.8 |
| 20260508074004 | 40 | 331 | 0.0 | 0.0 | 0.00 | 0.01 | 0.00 | 90 | 1016.8 |
| 20260508073511 | 40 | 331 | 0.0 | 0.0 | 0.00 | 0.01 | 0.00 | 90 | 1016.9 |
| 20260508073026 | 40 | 331 | 0.0 | 1.0 | 0.00 | 0.01 | 0.00 | 90 | 1017.0 |
| 20260508072508 | 40 | 331 | 0.0 | 2.0 | 0.00 | 0.01 | 0.00 | 90 | 1016.9 |
| 20260508072007 | 40 | 331 | 0.0 | 3.0 | 0.00 | 0.01 | 0.00 | 90 | 1016.9 |
| 20260508071526 | 40 | 331 | 1.0 | 3.0 | 0.00 | 0.01 | 0.00 | 90 | 1016.9 |
| 20260508071006 | 40 | 331 | 2.0 | 3.0 | 0.00 | 0.01 | 0.00 | 90 | 1016.8 |
| 20260508070507 | 40 | 331 | 1.0 | 3.0 | 0.00 | 0.01 | 0.00 | 90 | 1016.9 |
| 20260508070027 | 40 | 331 | 2.0 | 3.0 | 0.00 | 0.01 | 0.00 | 90 | 1016.9 |
| 20260508065509 | 41 | 331 | 1.0 | 3.0 | 0.00 | 0.01 | 0.00 | 90 | 1016.8 |
| 20260508065004 | 41 | 331 | 1.0 | 3.0 | 0.00 | 0.01 | 0.00 | 90 | 1016.7 |
| 20260508064544 | 40 | 331 | 2.0 | 3.0 | 0.00 | 0.01 | 0.00 | 90 | 1016.8 |
| 20260508064008 | 41 | 331 | 2.0 | 3.0 | 0.00 | 0.01 | 0.00 | 89 | 1017.0 |
| 20260508063505 | 41 | 330 | 0.0 | 0.0 | 0.00 | 0.01 | 0.00 | 89 | 1017.2 |
| 20260508063027 | 41 | 330 | 0.0 | 0.0 | 0.00 | 0.01 | 0.00 | 90 | 1017.2 |
| 20260508062511 | 41 | 330 | 0.0 | 0.0 | 0.00 | 0.01 | 0.00 | 89 | 1017.1 |
| 20260508062009 | 41 | 330 | 0.0 | 0.0 | 0.00 | 0.01 | 0.00 | 89 | 1017.2 |
| 20260508061523 | 41 | 330 | 0.0 | 1.0 | 0.00 | 0.01 | 0.00 | 89 | 1017.3 |
| 20260508061011 | 41 | 330 | 0.0 | 1.0 | 0.00 | 0.01 | 0.00 | 89 | 1017.3 |
| 20260508060508 | 41 | 330 | 0.0 | 1.0 | 0.00 | 0.01 | 0.00 | 89 | 1017.4 |
| 20260508060033 | 41 | 330 | 0.0 | 2.0 | 0.00 | 0.01 | 0.00 | 89 | 1017.3 |
| 20260508055509 | 41 | 330 | 0.0 | 2.0 | 0.00 | 0.01 | 0.00 | 89 | 1017.3 |
| 20260508055007 | 41 | 330 | 0.0 | 1.0 | 0.00 | 0.01 | 0.00 | 89 | 1017.3 |
| 20260508054548 | 41 | 330 | 0.0 | 2.0 | 0.00 | 0.01 | 0.00 | 88 | 1017.3 |
| 20260508054008 | 42 | 330 | 0.0 | 2.0 | 0.00 | 0.02 | 0.00 | 89 | 1017.2 |
| 20260508053511 | 42 | 330 | 0.0 | 1.0 | 0.00 | 0.02 | 0.00 | 89 | 1017.2 |
| 20260508053018 | 42 | 330 | 0.0 | 0.0 | 0.00 | 0.02 | 0.00 | 88 | 1017.2 |
| 20260508052507 | 42 | 330 | 0.0 | 0.0 | 0.00 | 0.02 | 0.00 | 88 | 1017.2 |
| 20260508052006 | 42 | 330 | 0.0 | 0.0 | 0.00 | 0.02 | 0.00 | 88 | 1017.2 |
| 20260508051527 | 42 | 330 | 0.0 | 0.0 | 0.00 | 0.03 | 0.00 | 88 | 1017.2 |
| 20260508051007 | 42 | 330 | 0.0 | 0.0 | 0.00 | 0.03 | 0.00 | 88 | 1017.3 |
| 20260508050503 | 42 | 330 | 0.0 | 0.0 | 0.00 | 0.03 | 0.00 | 88 | 1017.3 |
| 20260508050016 | 42 | 330 | 0.0 | 0.0 | 0.00 | 0.03 | 0.00 | 88 | 1017.2 |
| 20260508045506 | 42 | 330 | 0.0 | 2.0 | 0.00 | 0.03 | 0.03 | 87 | 1017.3 |
| 20260508045004 | 42 | 330 | 0.0 | 2.0 | 0.00 | 0.03 | 0.03 | 87 | 1017.4 |
| 20260508044509 | 42 | 330 | 0.0 | 2.0 | 0.00 | 0.03 | 0.03 | 87 | 1017.5 |
| 20260508044003 | 43 | 330 | 0.0 | 1.0 | 0.00 | 0.03 | 0.03 | 87 | 1017.5 |
| 20260508043505 | 43 | 330 | 0.0 | 0.0 | 0.00 | 0.03 | 0.03 | 87 | 1017.5 |
| 20260508043015 | 43 | 330 | 0.0 | 0.0 | 0.00 | 0.03 | 0.03 | 87 | 1017.6 |
| 20260508042505 | 43 | 330 | 0.0 | 0.0 | 0.00 | 0.03 | 0.03 | 86 | 1017.6 |
| 20260508042007 | 43 | 330 | 0.0 | 0.0 | 0.00 | 0.03 | 0.03 | 86 | 1017.6 |
| 20260508041521 | 43 | 330 | 0.0 | 0.0 | 0.00 | 0.03 | 0.03 | 86 | 1017.6 |
| 20260508041007 | 44 | 330 | 0.0 | 0.0 | 0.00 | 0.03 | 0.03 | 86 | 1017.5 |
| 20260508040506 | 44 | 330 | 0.0 | 0.0 | 0.00 | 0.03 | 0.03 | 86 | 1017.4 |
| 20260508040025 | 44 | 330 | 0.0 | 0.0 | 0.00 | 0.03 | 0.03 | 86 | 1017.3 |
| 20260508035508 | 44 | 330 | 0.0 | 0.0 | 0.00 | 0.03 | 0.03 | 86 | 1017.2 |
| 20260508035004 | 44 | 330 | 0.0 | 0.0 | 0.00 | 0.03 | 0.03 | 85 | 1017.2 |
| 20260508034519 | 44 | 330 | 0.0 | 0.0 | 0.00 | 0.03 | 0.03 | 85 | 1017.1 |
| 20260508034003 | 44 | 330 | 0.0 | 0.0 | 0.00 | 0.03 | 0.03 | 85 | 1017.2 |
| 20260508033507 | 44 | 330 | 0.0 | 0.0 | 0.00 | 0.03 | 0.03 | 84 | 1017.2 |
| 20260508033014 | 45 | 330 | 0.0 | 0.0 | 0.00 | 0.03 | 0.03 | 84 | 1017.1 |
| 20260508032508 | 45 | 330 | 0.0 | 1.0 | 0.00 | 0.03 | 0.03 | 84 | 1017.1 |
| 20260508032005 | 45 | 330 | 0.0 | 2.0 | 0.00 | 0.03 | 0.03 | 83 | 1017.2 |
| 20260508031515 | 45 | 330 | 0.0 | 2.0 | 0.00 | 0.03 | 0.03 | 83 | 1017.3 |
| 20260508031007 | 46 | 330 | 0.0 | 1.0 | 0.00 | 0.03 | 0.03 | 82 | 1017.2 |
| 20260508030508 | 46 | 330 | 0.0 | 1.0 | 0.00 | 0.03 | 0.03 | 82 | 1017.3 |
| 20260508030026 | 46 | 330 | 0.0 | 0.0 | 0.00 | 0.03 | 0.03 | 81 | 1017.2 |
| 20260508025507 | 46 | 330 | 0.0 | 0.0 | 0.00 | 0.03 | 0.03 | 81 | 1017.1 |
| 20260508025006 | 46 | 330 | 0.0 | 0.0 | 0.00 | 0.03 | 0.03 | 80 | 1017.0 |
| 20260508024523 | 47 | 330 | 0.0 | 0.0 | 0.00 | 0.03 | 0.03 | 80 | 1016.9 |
| 20260508024006 | 47 | 330 | 0.0 | 1.0 | 0.00 | 0.03 | 0.03 | 79 | 1016.9 |
| 20260508023507 | 47 | 330 | 0.0 | 2.0 | 0.00 | 0.04 | 0.03 | 79 | 1016.8 |
| 20260508023012 | 47 | 330 | 0.0 | 2.0 | 0.00 | 0.04 | 0.03 | 79 | 1017.0 |
| 20260508022504 | 48 | 330 | 0.0 | 2.0 | 0.00 | 0.04 | 0.03 | 78 | 1017.0 |
| 20260508022006 | 48 | 330 | 0.0 | 2.0 | 0.00 | 0.05 | 0.03 | 77 | 1016.9 |
| 20260508021511 | 48 | 330 | 1.0 | 2.0 | 0.00 | 0.05 | 0.03 | 77 | 1016.8 |
| 20260508021002 | 48 | 330 | 1.0 | 2.0 | 0.00 | 0.05 | 0.03 | 76 | 1016.8 |
| 20260508020508 | 49 | 330 | 0.0 | 2.0 | 0.00 | 0.06 | 0.03 | 76 | 1016.9 |
| 20260508020017 | 49 | 330 | 0.0 | 2.0 | 0.00 | 0.07 | 0.03 | 75 | 1016.7 |
| 20260508015505 | 49 | 330 | 0.0 | 2.0 | 0.00 | 0.07 | 0.03 | 74 | 1016.6 |
| 20260508015012 | 49 | 330 | 0.0 | 0.0 | 0.00 | 0.07 | 0.03 | 74 | 1016.3 |
| 20260508014519 | 50 | 330 | 0.0 | 0.0 | 0.00 | 0.07 | 0.03 | 73 | 1016.3 |
| 20260508014010 | 50 | 330 | 0.0 | 0.0 | 0.00 | 0.07 | 0.03 | 73 | 1016.2 |
| 20260508013506 | 50 | 330 | 0.0 | 0.0 | 0.00 | 0.08 | 0.03 | 71 | 1016.1 |
| 20260508013023 | 51 | 330 | 0.0 | 0.0 | 0.00 | 0.08 | 0.03 | 70 | 1016.1 |
| 20260508012515 | 51 | 330 | 0.0 | 0.0 | 0.00 | 0.08 | 0.03 | 70 | 1016.0 |
| 20260508012012 | 52 | 330 | 0.0 | 0.0 | 0.00 | 0.08 | 0.03 | 68 | 1016.0 |
| 20260508011535 | 52 | 330 | 0.0 | 0.0 | 0.00 | 0.08 | 0.03 | 65 | 1016.0 |
| 20260508011003 | 53 | 330 | 0.0 | 1.0 | 0.00 | 0.08 | 0.03 | 64 | 1016.0 |
| 20260508010503 | 53 | 330 | 0.0 | 1.0 | 0.00 | 0.08 | 0.03 | 63 | 1015.9 |
| 20260508010023 | 54 | 330 | 0.0 | 2.0 | 0.00 | 0.08 | 0.03 | 63 | 1015.8 |
| 20260508005506 | 54 | 330 | 0.0 | 2.0 | 0.00 | 0.08 | 0.03 | 62 | 1015.8 |
| 20260508005006 | 55 | 330 | 0.0 | 1.0 | 0.00 | 0.08 | 0.03 | 61 | 1015.6 |
| 20260508004530 | 55 | 330 | 0.0 | 2.0 | 0.00 | 0.08 | 0.03 | 60 | 1015.5 |
| 20260508004011 | 56 | 330 | 0.0 | 3.0 | 0.00 | 0.08 | 0.03 | 59 | 1015.4 |
| 20260508003506 | 56 | 330 | 0.0 | 3.0 | 0.00 | 0.08 | 0.03 | 58 | 1015.3 |
| 20260508003024 | 56 | 330 | 1.0 | 3.0 | 0.00 | 0.08 | 0.03 | 58 | 1015.3 |
| 20260508002507 | 57 | 330 | 0.0 | 3.0 | 0.00 | 0.08 | 0.03 | 57 | 1015.3 |
| 20260508002010 | 57 | 330 | 1.0 | 3.0 | 0.00 | 0.08 | 0.03 | 57 | 1015.3 |
| 20260508001529 | 57 | 330 | 1.0 | 3.0 | 0.00 | 0.08 | 0.03 | 56 | 1015.2 |
| 20260508001009 | 58 | 331 | 1.0 | 3.0 | 0.00 | 0.08 | 0.03 | 57 | 1015.2 |
| 20260508000508 | 58 | 330 | 0.0 | 4.0 | 0.00 | 0.08 | 0.03 | 56 | 1015.1 |
| 20260508000029 | 59 | 330 | 0.0 | 5.0 | 0.00 | 0.08 | 0.03 | 55 | 1015.0 |
| 20260507235509 | 59 | 315 | 2.0 | 5.0 | 0.00 | 0.09 | 0.03 | 52 | 1015.0 |
| 20260507235009 | 60 | 327 | 2.0 | 5.0 | 0.00 | 0.09 | 0.03 | 52 | 1014.9 |
| 20260507234522 | 61 | 360 | 3.0 | 8.0 | 0.00 | 0.09 | 0.03 | 50 | 1014.8 |
| 20260507234006 | 61 | 319 | 2.0 | 8.0 | 0.00 | 0.10 | 0.03 | 51 | 1014.8 |
| 20260507233506 | 62 | 339 | 1.0 | 10.0 | 0.00 | 0.10 | 0.03 | 49 | 1014.7 |
| 20260507233025 | 62 | 276 | 3.0 | 10.0 | 0.00 | 0.10 | 0.03 | 48 | 1014.7 |
| 20260507232506 | 62 | 338 | 2.0 | 8.0 | 0.00 | 0.10 | 0.03 | 51 | 1014.7 |
| 20260507232010 | 63 | 329 | 3.0 | 6.0 | 0.00 | 0.10 | 0.03 | 49 | 1014.6 |
| 20260507231525 | 63 | 346 | 3.0 | 5.0 | 0.00 | 0.10 | 0.03 | 48 | 1014.7 |
| 20260507231007 | 63 | 328 | 2.0 | 5.0 | 0.00 | 0.10 | 0.03 | 47 | 1014.7 |
| 20260507230508 | 64 | 331 | 2.0 | 8.0 | 0.00 | 0.10 | 0.03 | 49 | 1014.8 |
| 20260507230025 | 64 | 327 | 3.0 | 8.0 | 0.00 | 0.10 | 0.03 | 51 | 1014.7 |
| 20260507225509 | 64 | 300 | 3.0 | 8.0 | 0.00 | 0.10 | 0.03 | 48 | 1014.8 |
| 20260507225008 | 64 | 306 | 3.0 | 9.0 | 0.00 | 0.10 | 0.03 | 50 | 1015.0 |
| 20260507224526 | 64 | 329 | 4.0 | 10.0 | 0.00 | 0.10 | 0.03 | 48 | 1014.9 |
| 20260507224010 | 65 | 264 | 3.0 | 10.0 | 0.00 | 0.10 | 0.03 | 47 | 1014.9 |
| 20260507223503 | 65 | 326 | 2.0 | 4.0 | 0.00 | 0.10 | 0.03 | 52 | 1015.0 |
| 20260507223020 | 65 | 275 | 1.0 | 8.0 | 0.00 | 0.10 | 0.03 | 49 | 1015.0 |
| 20260507222516 | 64 | 305 | 1.0 | 9.0 | 0.00 | 0.10 | 0.03 | 49 | 1015.0 |
| 20260507222007 | 64 | 337 | 4.0 | 10.0 | 0.00 | 0.10 | 0.03 | 50 | 1015.0 |
| 20260507221522 | 65 | 328 | 1.0 | 10.0 | 0.00 | 0.10 | 0.03 | 50 | 1015.0 |
| 20260507221013 | 65 | 16 | 3.0 | 10.0 | 0.00 | 0.10 | 0.03 | 47 | 1015.0 |
| 20260507220519 | 65 | 270 | 0.0 | 9.0 | 0.00 | 0.10 | 0.03 | 48 | 1014.9 |
| 20260507220028 | 64 | 239 | 1.0 | 9.0 | 0.00 | 0.10 | 0.03 | 52 | 1014.9 |
| 20260507215511 | 65 | 286 | 3.0 | 9.0 | 0.00 | 0.10 | 0.03 | 48 | 1014.7 |
| 20260507215011 | 65 | 261 | 2.0 | 11.0 | 0.00 | 0.10 | 0.03 | 50 | 1014.7 |
| 20260507214530 | 65 | 9 | 4.0 | 13.0 | 0.00 | 0.10 | 0.03 | 51 | 1014.8 |
| 20260507214012 | 64 | 35 | 3.0 | 13.0 | 0.00 | 0.10 | 0.03 | 50 | 1014.8 |
| 20260507213509 | 64 | 315 | 4.0 | 12.0 | 0.00 | 0.10 | 0.03 | 50 | 1014.7 |
| 20260507213027 | 65 | 324 | 5.0 | 12.0 | 0.00 | 0.10 | 0.03 | 49 | 1014.6 |
| 20260507212511 | 65 | 11 | 4.0 | 10.0 | 0.00 | 0.10 | 0.03 | 49 | 1014.6 |
| 20260507212017 | 65 | 355 | 2.0 | 8.0 | 0.00 | 0.10 | 0.03 | 48 | 1014.5 |
| 20260507211518 | 66 | 333 | 2.0 | 13.0 | 0.00 | 0.10 | 0.03 | 50 | 1014.5 |
| 20260507211009 | 66 | 355 | 4.0 | 13.0 | 0.00 | 0.10 | 0.03 | 55 | 1014.5 |
| 20260507210508 | 66 | 333 | 5.0 | 13.0 | 0.00 | 0.10 | 0.03 | 51 | 1014.5 |
| 20260507210026 | 64 | 351 | 1.0 | 9.0 | 0.00 | 0.10 | 0.03 | 52 | 1014.5 |
| 20260507205511 | 64 | 315 | 5.0 | 9.0 | 0.00 | 0.10 | 0.03 | 50 | 1014.5 |
| 20260507205007 | 64 | 288 | 2.0 | 8.0 | 0.00 | 0.10 | 0.03 | 55 | 1014.5 |
| 20260507204528 | 66 | 279 | 2.0 | 8.0 | 0.00 | 0.10 | 0.03 | 52 | 1014.4 |
| 20260507204009 | 66 | 279 | 2.0 | 10.0 | 0.00 | 0.10 | 0.03 | 52 | 1014.4 |
| 20260507203510 | 66 | 288 | 2.0 | 10.0 | 0.00 | 0.10 | 0.03 | 52 | 1014.4 |
| 20260507203029 | 66 | 295 | 3.0 | 8.0 | 0.00 | 0.10 | 0.03 | 52 | 1014.3 |
| 20260507202509 | 67 | 294 | 3.0 | 9.0 | 0.00 | 0.10 | 0.03 | 55 | 1014.4 |
| 20260507202015 | 66 | 309 | 2.0 | 9.0 | 0.00 | 0.10 | 0.03 | 57 | 1014.4 |
| 20260507201530 | 65 | 338 | 2.0 | 11.0 | 0.00 | 0.10 | 0.03 | 56 | 1014.4 |
| 20260507201011 | 65 | 9 | 6.0 | 11.0 | 0.00 | 0.10 | 0.03 | 48 | 1014.4 |
| 20260507200503 | 66 | 323 | 5.0 | 9.0 | 0.00 | 0.10 | 0.03 | 49 | 1014.4 |
| 20260507200003 | 65 | 42 | 3.0 | 9.0 | 0.00 | 0.10 | 0.03 | 60 | 1014.4 |
| 20260507195502 | 66 | 301 | 4.0 | 9.0 | 0.00 | 0.10 | 0.03 | 52 | 1014.6 |
| 20260507195002 | 66 | 294 | 1.0 | 10.0 | 0.00 | 0.10 | 0.03 | 56 | 1014.6 |
| 20260507194506 | 64 | 335 | 5.0 | 12.0 | 0.00 | 0.10 | 0.03 | 55 | 1014.7 |
| 20260507194001 | 64 | 270 | 7.0 | 12.0 | 0.00 | 0.10 | 0.03 | 50 | 1014.7 |
| 20260507193503 | 65 | 22 | 4.0 | 11.0 | 0.00 | 0.10 | 0.03 | 53 | 1014.8 |
| 20260507193017 | 65 | 89 | 5.0 | 11.0 | 0.00 | 0.10 | 0.03 | 57 | 1014.9 |
| 20260507192505 | 64 | 265 | 2.0 | 11.0 | 0.00 | 0.11 | 0.03 | 50 | 1014.8 |
| 20260507192003 | 65 | 304 | 2.0 | 8.0 | 0.00 | 0.12 | 0.03 | 56 | 1014.9 |
| 20260507191516 | 64 | 342 | 4.0 | 9.0 | 0.00 | 0.12 | 0.03 | 52 | 1015.0 |
| 20260507191003 | 64 | 355 | 4.0 | 10.0 | 0.00 | 0.12 | 0.03 | 58 | 1015.0 |
| 20260507190509 | 65 | 5 | 6.0 | 10.0 | 0.00 | 0.12 | 0.03 | 59 | 1015.0 |
| 20260507190022 | 65 | 16 | 4.0 | 9.0 | 0.00 | 0.12 | 0.03 | 56 | 1015.1 |
| 20260507185507 | 64 | 325 | 4.0 | 9.0 | 0.00 | 0.12 | 0.03 | 54 | 1015.1 |
| 20260507185003 | 64 | 5 | 4.0 | 9.0 | 0.00 | 0.12 | 0.03 | 59 | 1015.0 |
| 20260507184503 | 65 | 331 | 3.0 | 8.0 | 0.00 | 0.12 | 0.03 | 59 | 1015.0 |
| 20260507184002 | 63 | 292 | 4.0 | 8.0 | 0.00 | 0.12 | 0.03 | 61 | 1014.9 |
| 20260507183502 | 63 | 263 | 3.0 | 9.0 | 0.00 | 0.12 | 0.03 | 60 | 1015.1 |
| 20260507183009 | 63 | 310 | 4.0 | 9.0 | 0.00 | 0.12 | 0.03 | 56 | 1015.2 |
| 20260507182503 | 62 | 300 | 2.0 | 11.0 | 0.00 | 0.12 | 0.03 | 65 | 1015.2 |
| 20260507182004 | 61 | 328 | 4.0 | 11.0 | 0.00 | 0.12 | 0.03 | 64 | 1015.2 |
| 20260507181514 | 61 | 42 | 3.0 | 11.0 | 0.00 | 0.12 | 0.03 | 64 | 1015.3 |
| 20260507181007 | 61 | 302 | 4.0 | 11.0 | 0.00 | 0.12 | 0.03 | 63 | 1015.5 |
| 20260507180506 | 62 | 337 | 3.0 | 8.0 | 0.00 | 0.12 | 0.03 | 61 | 1015.5 |
| 20260507180018 | 63 | 311 | 4.0 | 9.0 | 0.00 | 0.12 | 0.03 | 60 | 1015.5 |
| 20260507175511 | 60 | 5 | 4.0 | 9.0 | 0.00 | 0.12 | 0.03 | 62 | 1015.5 |